CST,Max TemperatureF,Mean TemperatureF,Min TemperatureF,Max Dew PointF,MeanDew PointF,Min DewpointF,Max Humidity, Mean Humidity, Min Humidity, Max Sea Level PressureIn, Mean Sea Level PressureIn, Min Sea Level PressureIn, Max VisibilityMiles, Mean VisibilityMiles, Min VisibilityMiles, Max Wind SpeedMPH, Mean Wind SpeedMPH, Max Gust SpeedMPH,PrecipitationIn, CloudCover, Events, WindDirDegrees
2013-12-1,38,27,16,26,23,16,99,81,55,30.17,30.09,29.97,10,9,5,5,1,,0.00,2,,358
2013-12-2,39,26,14,33,26,14,100,88,65,29.96,29.80,29.69,10,7,2,13,3,22,0.13,5,Rain-Snow,116
2013-12-3,34,33,32,35,34,32,100,100,97,29.77,29.71,29.67,10,4,2,12,7,17,0.19,8,Rain,87
2013-12-4,40,35,29,40,33,24,100,98,79,29.76,29.62,29.42,10,4,1,16,8,23,0.08,8,Rain,80
2013-12-5,28,17,6,23,6,0,79,68,53,30.31,30.02,29.65,10,10,10,23,14,29,0.00,3,Snow,265
2013-12-6,12,6,1,0,-2,-4,81,71,53,30.60,30.46,30.36,10,10,10,15,6,20,0.00,2,,284
2013-12-7,10,3,-4,-3,-6,-8,85,72,46,30.70,30.63,30.57,10,10,10,10,4,,0.00,0,,266
2013-12-8,13,7,1,9,5,-2,89,82,71,30.57,30.27,29.99,10,4,1,10,3,,0.00,2,Snow,76
2013-12-9,10,0,-9,8,-2,-14,92,76,56,30.15,30.05,29.96,10,8,2,17,4,24,0.00,0,Snow,246
2013-12-10,14,6,-2,10,1,-8,86,72,55,30.21,30.02,29.83,10,7,1,17,7,25,0.00,3,Snow,239
2013-12-11,13,0,-14,10,-8,-19,90,70,47,30.50,30.42,30.21,10,9,1,15,5,20,0.00,2,Snow,291
2013-12-12,20,9,-2,11,3,-9,88,70,58,30.42,30.25,30.15,10,10,10,10,4,,0.00,3,,230
2013-12-13,24,18,13,13,10,4,89,73,54,30.25,30.17,30.12,10,10,10,13,5,18,0.00,6,,67
2013-12-14,21,16,11,16,11,5,85,79,67,30.22,30.10,29.99,10,7,1,10,7,17,0.00,5,Snow,32
2013-12-15,11,4,-4,6,-5,-10,80,65,44,30.15,30.06,29.99,10,10,7,13,8,21,0.00,3,Snow,302
2013-12-16,16,3,-9,14,0,-14,90,77,51,30.15,30.05,29.98,10,8,0,8,1,,0.00,6,Snow,218
2013-12-17,32,24,14,25,17,5,100,76,59,30.09,29.95,29.86,10,9,2,16,6,23,0.00,6,Snow,269
2013-12-18,36,18,-1,26,12,-4,100,75,47,30.09,29.86,29.69,10,10,10,20,3,30,0.00,1,,202
2013-12-19,26,18,11,22,18,10,100,85,74,30.01,29.92,29.77,10,9,4,14,4,22,0.00,4,,46
2013-12-20,22,20,18,21,19,16,100,92,84,29.97,29.90,29.82,10,7,2,12,6,18,0.00,2,Snow,38
2013-12-21,26,24,21,25,22,20,98,93,86,29.92,29.87,29.82,10,10,3,8,2,,0.00,4,,26
2013-12-22,26,22,18,23,21,18,99,90,75,30.14,29.94,29.81,10,4,1,10,4,16,0.00,2,Snow,341
2013-12-23,18,4,-12,17,0,-16,94,81,70,30.46,30.33,30.14,10,5,1,12,6,,0.00,0,Snow,265
2013-12-24,15,-4,-23,7,-8,-29,86,76,68,30.50,30.40,30.22,10,8,0,12,2,,0.00,1,Snow,167
2013-12-25,23,16,8,20,13,5,95,84,78,30.21,30.11,30.05,10,7,1,12,3,,0.00,3,Snow,236
2013-12-26,25,18,12,22,15,8,99,84,72,30.19,30.14,30.10,10,9,4,6,2,,0.00,4,Snow,233
2013-12-27,37,19,1,30,18,-2,100,82,65,30.20,30.08,29.94,10,9,0,12,2,17,0.12,1,Fog,220
2013-12-28,43,28,12,32,23,11,100,77,54,30.02,29.85,29.72,10,9,0,10,2,,0.20,1,Fog,203
2013-12-29,37,12,-17,32,4,-23,99,73,58,30.27,30.09,29.76,10,10,4,20,13,28,0.00,5,Snow,312
2013-12-30,0,-12,-24,-4,-16,-30,85,74,49,30.30,30.24,30.19,10,8,2,6,0,,0.00,1,Snow,275
2013-12-31,5,-3,-11,-3,-7,-16,87,74,60,30.38,30.27,30.17,10,10,7,7,2,,0.00,0,Snow,302